Погода в Романовке

Погода в Романовке : погода сейчас, прогноз погоды и архив. Всё, что Вы хотите узнать о погоде в Романовке!

Поиск расширенной информации на нашем сайте:

Другие новости

Новости СМИ2

Главная страница сайта

Новости сайта

02.10.2013

Напоминаем, что на нашем новом сайте вы можете получить высокодетализированные прогнозы погоды по пунктам России, СНГ и мира (включающие важные для авиации метеовеличины, такие как направление и скорость ветра, видимость, явления погоды, количество и форма облачности, нижняя и верхняя граница облачности), а также ознакомиться с разнообразными материалами по авиационной метеорологии и подборкой полезных ссылок на эту тему.

Сайт Метеоцентр.Азия посвящён разработке технологий оптимизации авиаметеорологического обслуживания, включая проектирование и перспективное создание нескольких автоматизированных авиаметеорологических систем:
- система выпуска высокодетальных прогностических карт явлений погоды для нижнего воздушного пространства по России и ближнему зарубежью;
- система верификации прогнозов TAF (выпускаемых синоптиками официальных АМСГ РФ и ближнего зарубежья) и AUTOTAF (выпускаемых сайтом Метеоцентр.Азия) - выявление ошибок, онлайн-сопоставление с фактической погодой METAR, автоматическое внесение коррективов в прогнозы при резком отклонении фактической погоды от прогноза, подсчёт оправдываемости прогнозов по элементам и в целом;
- система обработки, анализа и отображения авиаметеорологической информации для применения провайдерами метеорологической информации.

Рекомендуем: Пластыри для стоп китайские - выгодные цены!

Погода в Романовке - сегодня

Время (UTC), дата Ветер
(°,м/с) 
Видим.   Явления Облачность Т
(°С)
Тd
(°С)
f(%) Тe
(°С)
Pmin
(гПа)
dP
(гПа)
Po
(мм)
O2
(г/м3)
Тmin Tmax R s Состояние
почвы
03 20.05.17 290 (З) 20000 м    3/3 1000 м 
[Cu hum]
+5.1 -12.5 27 +5  1026.1  -1.6  688  273           
06 20.05.17 300 (СЗ) 20000 м    5/5 1000 м 
[Cu hum]
+7.6 -13.9 20 +9  1022.6  -2.3  686  270           
09 20.05.17 310 (СЗ) 20000 м    5/5 1000 м 
[Cu hum]
+10.3 -14 17 +10  1019.4  -1.9  685  267           
12 20.05.17 300 (СЗ) 20000 м    ясно 
+7.9 -12.4 22 +9  1020.7  0.4  685  269    +10.6       
15 20.05.17 230 (ЮЗ) н/о    4/0 средняя 
[Ac trans]
+0.1 -11.2 42 +1  1025.5  1.4  686  277           
18 20.05.17 220 (ЮЗ) н/о    ясно 
-5.1 -10.6 65 -5  1027.8  0.1  686  283           
21 20.05.17 060 (СВ) 20000 м    3/0 средняя 
[Ac lent]
-7.2 -9.7 82 -7  1028.3  -0.3  686  285           
00 21.05.17 220 (ЮЗ) 20000 м    3/0 верхняя 
[Ci fib]
+3.7 -8.9 39 +3  1023.4  -0.2  686  273  -7.4        сухая 
03 21.05.17 220 (ЮЗ) 6-10{10}  20000 м    1/1 1000 м 
[Cu hum]
+13.3 -7.6 23 +12  1016.9  -2.4  684  263           
06 21.05.17 220 (ЮЗ) 4{10}  20000 м    3/3 1000 м 
[Cu med, cong]
+16.1 -7.6 19 +16  1012.7  -2.8  682  260           
09 21.05.17 230 (ЮЗ) 5-10{13}  20000 м    3/3 600 м кучево-дожд. 
[Cb cap]
+16.9 -8 17 +17  1009.8  -2.4  680  259           
12 21.05.17 210 (ЮЗ) 4{12}  20000 м    1/1 1000 м 
[Sc diur, vesp]
+13.9 -10 18 +14  1010  -0.8  680  261    +17.5       
15 21.05.17 220 (ЮЗ) н/о    1/0 средняя 
[Ac lent]
+8.2 -6.6 34 +8  1012.2  680  266           
18 21.05.17 220 (ЮЗ) н/о    3/0 средняя, верхняя 
[Ac lent|Ci fib]
+5.9 -4.6 47 +4  1011.3  -1.6  678  268           
21 21.05.17 220 (ЮЗ) 20000 м    10/0 средняя, верхняя 
[Ac lent|Ci sp]
+2.9 -4.3 59 +4  1010.9  -1.3  677  270           
00 22.05.17 230 (ЮЗ) 20000 м    10/1 600 м кучево-дожд., средняя 
[Cb cap|Ac und]
+9.9 -1.5 45 +9  1008.2  0.1  677  263  +0.1        сухая 
03 22.05.17 290 (З) 4{13}  20000 м    5/5 600 м кучево-дожд. 
[Cb cap]
+11.9 -4.6 31 +11  1008.7  1.1  678  262           
06 22.05.17 320 (СЗ) 6-10{15}  20000 м    3/3 600 м кучево-дожд. 
[Cb cap]
+12.4 -12.5 16 +11  1010.6  1.7  680  263           
09 22.05.17 290 (З) 3{12}  20000 м    6/3 1000 м средняя, верхняя 
[Cu hum|Ac lent|Ci fib]
+11.3 -13.3 16 +11  1011.2  0.1  680  264           
12 22.05.17 290 (З) 3{11}  20000 м    9/3 1000 м средняя, верхняя 
[Cu hum|Ac lent|Ci fib]
+7.8 -11 25 +7  1014.4  1.7  681  268    +12.8       
15 22.05.17 190 (Ю) н/о    10/3 600 м кучево-дожд., средняя, верхняя 
[Cb cap|Ac trans|Ci fib]
+1.8 -10.3 40 +3  1017.5  0.6  681  274           
18 22.05.17 тихо ()   н/о    10/4 600 м кучево-дожд., средняя 
[Cb cap|Ac und]
+0.5 -6.7 58 +1  1017.2  -0.7  681  274           
21 22.05.17 тихо ()   20000 м    10/6 600 м кучево-дожд., средняя 
[Cb cap|Ac und]
+0.8 -6.4 59 +1  1016.1  -0.9  680  274           
00 23.05.17 тихо ()   20000 м    10/5 600 м кучево-дожд., средняя 
[Cb cap|Ac und]
+3.2 -4.3 58 +3  1016  0.8  681  271  +0.3        сухая 
03 23.05.17 050 (СВ) 20000 м    8/8 600 м кучево-дожд. 
[Cb cap]
+8.9 -3.9 40 +9  1013.7  681  266           
Время (UTC), дата Ветер
(°,м/с) 
Видим.   Явления Облачность Т
(°С)
Тd
(°С)
f(%) Тe
(°С)
Pmin
(гПа)
dP
(гПа)
Po
(мм)
O2
(г/м3)
Тmin Tmax R s Состояние
почвы

Для получения пояснительной информации подведите курсор к названию столбца.

ПОГОДА в Романовке - архив

Всё, что Вы хотите узнать о погоде в Романовке - удобно и подробно!

Выберите нужную дату (начиная с 1 января 2015* года) и нажмите кнопку "Найти".
Будут отображены архивные сводки погоды по пункту Романовка, начиная с указанной даты.


Отображать данные в формате CSV (для использования в таблицах Excel)


Внимание! Наш архив погоды предназначен исключительно для личного некоммерческого использования в познавательных целях. Если Вам необходимы официальные справки о состоянии погоды (для производственных, юридических, коммерческих и т.п. целей), обращайтесь в органы Росгидромета.

*Примечание: данная дата относится к архиву по метеостанциям СССР (Россия, СНГ, Балтия).
Архив по метеостанциям Зарубежной Европы и Азии (кроме Китая) хранится 10 дней, по другим регионам земного шара (Китай, Африка, Америка, Австралия, Океания) - 1 день.

Романовка - район местоположения метеостанции


Название, широта, долгота, высота метеостанции:
Романовка 53.2°ш. 112.8°д. 923 м над ур. моря [Российская Федерация]

Дополнительная информация

В oтличие oт бoльшинства пoгoдных сайтoв мы публикуем пoдрoбную метеoинфoрмацию в детальнoм прoфессиoнальнoм фoрмате.

Характеристики температуры и влажнoсти вoздуха измеряются на высoте 2 м в тени вдали oт зданий и деревьев.
Скoрoсть ветра измеряется на высoте 10 м (на урoвне рoста челoвека скoрoсть ветра ниже в 1.5-2 раза). Если метеoстанция нахoдится в гoрoде или в лесу, тo скoрoсть ветра занижена на 2-4 м/с пo сравнению с oткрытым местoм. Скoрoсть ветра над акватoриями крупных рек и oзёр, а также на вершинах хoлмoв на 2-5 м/с выше, чем в oбычных услoвиях.
Атмoсфернoе давление в разных тoчках местнoсти мoжет значительнo oтличаться oт давления на метеoстанции, в зависимoсти oт услoвий рельефа (при пoдъёме на 10 м давление пoнижается примернo на 1 мм рт.ст.).